N5MCB Weather Reports


Display with metric or nautical units.
time (UTC)temp
F
wind
direction
speed
MPH
gust
MPH
rain 1hr
in
rain 24hr
in
rain mn
in
humidity
%
barometer
mb
20260509043359 69 97 0.0 1.0 0.00 0.00 0.00 86 1009.5
20260509043110 70 113 0.0 0.0 0.00 0.00 0.00 86 1009.2
20260509042603 70 103 0.0 0.0 0.00 0.00 0.00 85 1009.3
20260509042052 70 105 0.0 0.0 0.00 0.00 0.00 85 1009.7
20260509041324 70 102 0.0 0.0 0.00 0.00 0.00 84 1009.2
20260509041303 70 97 0.0 0.0 0.00 0.00 0.00 84 1009.1
20260509040308 70 96 0.0 0.0 0.00 0.00 0.00 84 1009.1
20260509035800 70 101 0.0 1.0 0.00 0.00 0.30 85 1008.9
20260509035249 70 134 1.0 2.0 0.00 0.00 0.30 85 1008.9
20260509034741 70 104 1.0 1.0 0.00 0.00 0.30 85 1008.7
20260509034718 69 102 1.0 2.0 0.07 0.00 0.30 87 1008.4
20260509033725 70 97 0.0 1.0 0.07 0.00 0.30 87 1008.9
20260509033215 71 103 1.0 2.0 0.00 0.00 0.29 84 1009.7
20260509033153 71 101 1.0 1.0 0.00 0.00 0.29 80 1010.2
20260509032420 72 121 1.0 1.0 0.00 0.00 0.29 79 1010.3
20260509031909 72 103 1.0 1.0 0.00 0.00 0.29 78 1010.2
20260509031140 72 94 0.0 0.0 0.00 0.00 0.29 78 1009.8
20260509031120 72 94 0.0 0.0 0.00 0.00 0.29 78 1009.7
20260509030347 72 93 0.0 0.0 0.00 0.00 0.29 78 1009.9
20260509025616 72 92 0.0 1.0 0.00 0.00 0.29 77 1009.8
20260509025329 72 97 0.0 0.0 0.00 0.00 0.29 77 1009.6
20260509025047 72 98 0.0 0.0 0.00 0.00 0.29 77 1009.6
20260509024049 72 95 0.0 0.0 0.00 0.00 0.29 77 1009.3
20260509023541 72 98 0.0 0.0 0.00 0.00 0.29 77 1009.3
20260509023033 72 94 0.0 0.0 0.00 0.00 0.29 77 1009.4
20260509022744 72 94 0.0 0.0 0.00 0.00 0.29 77 1009.1
20260509022015 72 97 0.0 0.0 0.00 0.00 0.29 76 1008.9
20260509021730 72 102 1.0 2.0 0.00 0.00 0.29 76 1008.7
20260509020956 72 156 3.0 4.0 0.00 0.00 0.29 76 1008.3
20260509020449 72 119 1.0 2.0 0.00 0.00 0.29 76 1007.9
20260509015942 72 119 2.0 3.0 0.00 0.00 0.29 75 1008.2
20260509015434 72 100 2.0 2.0 0.00 0.00 0.29 75 1008.3
20260509014925 72 102 0.0 1.0 0.00 0.00 0.29 75 1008.3
20260509014635 72 103 1.0 1.0 0.00 0.00 0.29 75 1008.0
20260509014127 72 98 1.0 1.0 0.00 0.00 0.29 74 1008.1
20260509013359 72 153 2.0 3.0 0.00 0.00 0.29 74 1008.1
20260509012849 73 144 2.0 2.0 0.00 0.00 0.29 74 1008.0
20260509012341 73 95 1.0 2.0 0.00 0.00 0.29 73 1008.1
20260509011833 73 95 2.0 2.0 0.00 0.00 0.29 73 1008.1
20260509011325 73 80 1.0 1.0 0.00 0.00 0.29 73 1008.1
20260509010813 73 97 1.0 1.0 0.00 0.00 0.29 73 1008.3
20260509010308 73 98 0.0 1.0 0.00 0.00 0.29 72 1008.2
20260509005800 73 103 0.0 0.0 0.00 0.00 0.29 72 1008.2
20260509005250 73 111 2.0 2.0 0.00 0.00 0.29 72 1008.2
20260509004742 74 125 2.0 2.0 0.00 0.00 0.29 72 1008.0
20260509004233 74 95 1.0 1.0 0.00 0.00 0.29 72 1007.9
20260509003725 74 101 2.0 3.0 0.00 0.00 0.29 71 1007.9
20260509003215 74 90 2.0 2.0 0.00 0.00 0.29 71 1007.8
20260509002926 74 125 2.0 3.0 0.00 0.00 0.29 71 1007.7
20260509002419 74 81 2.0 3.0 0.00 0.00 0.29 70 1007.4
20260509001908 74 73 2.0 3.0 0.00 0.00 0.29 70 1007.7
20260509001140 74 69 1.0 1.0 0.00 0.00 0.29 70 1007.6
20260509000631 75 119 2.0 2.0 0.00 0.00 0.29 70 1007.6
20260509000126 75 112 2.0 3.0 0.00 0.00 0.29 69 1007.8
20260509000100 75 128 1.0 2.0 0.00 0.00 0.29 69 1007.8
20260508235107 75 111 2.0 2.0 0.00 0.00 0.29 69 1007.8
20260508234559 76 76 2.0 3.0 0.00 0.00 0.29 69 1007.8
20260508234049 76 103 2.0 2.0 0.00 0.00 0.29 68 1007.8
20260508233802 76 114 1.0 1.0 0.00 0.00 0.29 68 1007.7
20260508233255 76 98 0.0 0.0 0.00 0.00 0.29 68 1008.0
20260508232528 77 132 0.0 0.0 0.00 0.00 0.29 67 1007.9
20260508232022 77 109 0.0 0.0 0.00 0.00 0.29 67 1007.9
20260508231737 77 139 3.0 3.0 0.00 0.00 0.29 66 1008.0
20260508231010 77 101 2.0 2.0 0.00 0.00 0.29 67 1007.8
20260508230723 77 113 2.0 2.0 0.00 0.00 0.29 66 1008.0
20260508225959 78 140 2.0 3.0 0.00 0.00 0.29 67 1007.9
20260508225451 77 101 1.0 1.0 0.00 0.00 0.29 67 1007.9
20260508224942 78 188 2.0 3.0 0.00 0.00 0.29 66 1008.0
20260508224654 78 126 0.0 1.0 0.00 0.00 0.29 66 1007.9
20260508224143 78 132 0.0 0.0 0.00 0.00 0.29 65 1008.1
20260508223417 78 141 3.0 4.0 0.00 0.00 0.29 66 1008.1
20260508222911 78 106 3.0 4.0 0.00 0.00 0.29 65 1008.1
20260508222405 77 101 0.0 0.0 0.00 0.00 0.29 66 1008.0
20260508221859 77 117 4.0 4.0 0.00 0.00 0.29 66 1008.0
20260508221352 77 127 2.0 3.0 0.00 0.00 0.29 65 1008.0
20260508220846 78 142 2.0 2.0 0.00 0.00 0.29 64 1008.1
20260508220340 78 121 1.0 1.0 0.00 0.00 0.29 64 1008.1
20260508220053 78 109 0.0 1.0 0.00 0.00 0.29 64 1007.9
20260508215546 78 206 2.0 2.0 0.00 0.00 0.29 64 1008.0
20260508214815 77 120 4.0 6.0 0.00 0.00 0.29 64 1007.9
20260508214307 78 94 2.0 3.0 0.00 0.00 0.29 63 1007.8
20260508214020 78 88 2.0 2.0 0.00 0.00 0.29 63 1007.7
20260508213249 78 104 0.0 1.0 0.00 0.00 0.29 64 1007.8
20260508212741 78 87 1.0 1.0 0.00 0.00 0.29 63 1007.9
20260508212233 78 132 2.0 2.0 0.00 0.00 0.29 63 1008.0
20260508211726 78 101 1.0 2.0 0.00 0.00 0.29 63 1008.3
20260508211216 78 197 2.0 3.0 0.00 0.00 0.29 62 1008.4
20260508210706 78 97 2.0 4.0 0.00 0.00 0.29 62 1008.7
20260508210158 79 97 0.0 0.0 0.00 0.00 0.29 61 1008.7
20260508205650 79 87 2.0 2.0 0.00 0.00 0.29 61 1008.9
20260508205141 78 142 0.0 1.0 0.00 0.00 0.29 61 1009.0
20260508204633 78 107 2.0 4.0 0.00 0.00 0.29 61 1009.2
20260508204345 78 136 1.0 1.0 0.00 0.00 0.29 62 1009.4
20260508203838 79 166 1.0 3.0 0.00 0.00 0.29 60 1009.4
20260508203326 78 88 1.0 2.0 0.00 0.00 0.29 61 1009.4
20260508202559 78 105 0.0 1.0 0.00 0.00 0.29 62 1009.6
20260508202049 79 97 0.0 1.0 0.00 0.00 0.29 61 1009.6
20260508201542 79 134 1.0 2.0 0.00 0.00 0.29 59 1009.6
20260508201034 79 145 1.0 1.0 0.00 0.00 0.29 59 1009.8
20260508200525 79 102 1.0 1.0 0.00 0.00 0.29 58 1009.8
20260508200235 79 91 0.0 1.0 0.00 0.00 0.29 56 1010.0
20260508195508 80 135 4.0 6.0 0.00 0.00 0.29 57 1009.9
20260508194959 80 153 1.0 1.0 0.00 0.00 0.29 57 1009.9
20260508194451 79 70 1.0 2.0 0.00 0.00 0.29 57 1009.9
20260508193945 79 114 2.0 3.0 0.00 0.00 0.29 58 1010.1
20260508193433 80 104 4.0 4.0 0.00 0.00 0.29 57 1010.0
20260508193409 79 208 1.0 1.0 0.00 0.00 0.29 57 1010.1
20260508192415 79 109 0.0 1.0 0.00 0.00 0.29 57 1010.0
20260508191907 79 177 2.0 3.0 0.00 0.00 0.29 56 1010.1
20260508191847 79 91 3.0 6.0 0.00 0.00 0.29 56 1010.3
20260508191336 79 100 0.0 0.0 0.00 0.00 0.29 56 1010.2
20260508190340 79 100 1.0 2.0 0.00 0.00 0.29 56 1010.2
20260508185834 78 103 1.0 1.0 0.00 0.00 0.29 58 1010.4
20260508185325 78 79 1.0 1.0 0.00 0.00 0.29 57 1010.4
20260508184815 78 148 0.0 1.0 0.00 0.00 0.29 58 1010.2
20260508184307 78 98 0.0 1.0 0.00 0.00 0.29 59 1010.5
20260508183759 78 117 0.0 0.0 0.00 0.00 0.29 59 1010.5
20260508183249 78 107 2.0 2.0 0.00 0.00 0.29 58 1010.8
20260508183001 77 139 1.0 1.0 0.00 0.00 0.29 58 1010.7
20260508182233 78 111 0.0 0.0 0.00 0.00 0.29 58 1010.9
20260508181725 77 101 0.0 1.0 0.00 0.00 0.29 59 1010.9
20260508181700 77 136 2.0 3.0 0.00 0.00 0.29 58 1010.9
20260508180708 77 102 1.0 1.0 0.00 0.00 0.29 60 1011.0
20260508180157 77 153 3.0 4.0 0.00 0.00 0.29 59 1011.3
20260508175909 78 109 4.0 4.0 0.00 0.00 0.29 57 1011.3
20260508175140 77 96 0.0 0.0 0.00 0.00 0.29 60 1011.0
20260508174633 78 97 3.0 3.0 0.00 0.00 0.29 58 1011.1
20260508174609 77 111 2.0 2.0 0.00 0.00 0.29 58 1011.3
20260508173836 78 105 0.0 0.0 0.00 0.00 0.29 58 1011.5
20260508173107 77 97 0.0 0.0 0.00 0.00 0.29 61 1011.8
20260508172559 76 99 0.0 0.0 0.00 0.00 0.29 60 1012.0
20260508172311 76 78 1.0 1.0 0.00 0.00 0.29 61 1012.2
20260508171542 75 111 1.0 1.0 0.00 0.00 0.29 60 1012.2
20260508171034 76 95 3.0 4.0 0.00 0.00 0.29 59 1012.4
20260508170745 75 102 4.0 7.0 0.00 0.00 0.29 64 1012.4
20260508170013 75 100 0.0 1.0 0.00 0.00 0.29 60 1012.5
20260508165507 74 78 2.0 2.0 0.00 0.00 0.29 60 1012.5
20260508165219 73 106 1.0 1.0 0.00 0.00 0.29 63 1012.7
20260508164708 73 102 2.0 3.0 0.00 0.00 0.29 61 1012.8
20260508163941 71 107 1.0 2.0 0.00 0.00 0.29 65 1013.0
20260508162925 70 166 3.0 4.0 0.00 0.00 0.29 66 1012.9
20260508162635 70 93 3.0 4.0 0.00 0.00 0.29 68 1012.9
20260508162128 70 106 1.0 2.0 0.00 0.00 0.29 69 1013.1
20260508161400 69 94 0.0 1.0 0.00 0.00 0.29 71 1013.2
20260508160850 68 103 1.0 1.0 0.00 0.00 0.29 71 1013.2
20260508155831 69 84 0.0 1.0 0.00 0.00 0.29 72 1013.2
20260508155325 68 99 0.0 0.0 0.00 0.00 0.29 73 1013.2
20260508154815 68 100 2.0 3.0 0.00 0.00 0.29 72 1013.4
20260508154307 68 191 3.0 4.0 0.00 0.00 0.29 71 1013.4
20260508153759 68 105 1.0 1.0 0.00 0.00 0.29 73 1013.7
20260508153511 68 104 1.0 1.0 0.00 0.00 0.29 73 1013.6
20260508152741 68 109 3.0 4.0 0.00 0.00 0.29 74 1013.5
20260508152452 68 139 0.0 2.0 0.00 0.00 0.29 76 1013.7
20260508151725 68 158 0.0 1.0 0.00 0.00 0.29 74 1013.4
20260508151216 68 92 1.0 1.0 0.00 0.00 0.29 76 1013.4
20260508151152 67 98 0.0 0.0 0.00 0.00 0.29 77 1013.5
20260508150645 68 93 2.0 3.0 0.00 0.00 0.29 77 1013.8
20260508145908 67 110 2.0 2.0 0.00 0.00 0.29 79 1013.7
20260508145401 65 99 0.0 0.0 0.00 0.00 0.29 82 1013.4
20260508144633 65 131 1.0 2.0 0.00 0.00 0.29 83 1013.8
20260508144125 65 100 0.0 0.0 0.00 0.00 0.29 83 1013.9
20260508143615 65 148 2.0 2.0 0.00 0.00 0.29 81 1014.0
20260508143107 65 151 1.0 1.0 0.00 0.00 0.29 82 1014.0
20260508143047 65 109 1.0 2.0 0.00 0.00 0.29 81 1013.8
20260508142314 64 118 2.0 3.0 0.00 0.00 0.29 81 1013.9
20260508141806 64 80 2.0 2.0 0.00 0.00 0.29 82 1014.0
20260508141525 64 120 1.0 2.0 0.00 0.00 0.29 85 1014.1
20260508140534 65 101 0.0 0.0 0.00 0.00 0.29 85 1014.1
20260508140027 64 95 0.0 0.0 0.00 0.00 0.29 88 1014.0
20260508140007 64 103 0.0 0.0 0.00 0.00 0.29 90 1014.0
20260508135234 64 93 0.0 0.0 0.00 0.00 0.29 89 1014.1
20260508134506 63 155 2.0 3.0 0.00 0.00 0.29 90 1014.0
20260508133958 62 98 0.0 0.0 0.00 0.00 0.29 92 1014.0
20260508133450 62 93 1.0 2.0 0.00 0.00 0.29 93 1014.0
20260508133202 62 104 0.0 0.0 0.00 0.00 0.29 94 1014.2
20260508132433 62 101 0.0 0.0 0.00 0.00 0.29 94 1014.2
20260508131927 62 119 2.0 3.0 0.00 0.00 0.29 94 1013.9
20260508131421 62 98 0.0 0.0 0.00 0.00 0.29 96 1013.8
20260508130915 62 101 0.0 0.0 0.00 0.00 0.29 96 1013.7
20260508130409 61 123 1.0 1.0 0.00 0.00 0.29 96 1013.6
20260508125903 61 123 2.0 2.0 0.00 0.00 0.29 96 1013.8
20260508125356 60 122 1.0 1.0 0.00 0.00 0.29 96 1014.0
20260508125333 60 118 1.0 2.0 0.00 0.00 0.29 96 1013.8
20260508124601 60 97 0.0 0.0 0.00 0.00 0.29 96 1014.3
20260508124054 60 100 0.0 0.0 0.00 0.00 0.29 96 1014.5
20260508123547 60 104 0.0 0.0 0.00 0.00 0.29 96 1014.7
20260508123035 60 98 0.0 0.0 0.00 0.00 0.29 96 1014.3
20260508122308 60 100 0.0 0.0 0.00 0.00 0.29 96 1014.6
20260508121802 60 100 0.0 0.0 0.00 0.00 0.29 96 1014.3
20260508121256 60 107 0.0 0.0 0.00 0.00 0.29 96 1014.4
20260508121011 60 102 0.0 0.0 0.00 0.00 0.29 96 1014.4
20260508120243 59 99 0.0 0.0 0.00 0.00 0.29 95 1014.3
20260508115956 59 99 0.0 0.0 0.00 0.00 0.29 95 1014.1
20260508115453 59 108 1.0 1.0 0.05 0.00 0.29 95 1014.0
20260508114724 59 96 0.0 0.0 0.12 0.00 0.29 95 1014.3
20260508114216 59 98 0.0 0.0 0.31 0.00 0.28 95 1014.0
20260508113931 59 100 1.0 2.0 0.47 0.00 0.27 95 1013.7
20260508113204 59 119 1.0 1.0 0.24 0.00 0.23 95 1014.1
20260508112909 59 120 1.0 2.0 0.00 0.00 0.19 95 1013.7
20260508112142 59 99 0.0 0.0 0.00 0.00 0.19 94 1013.9
20260508111854 59 110 1.0 2.0 0.12 0.00 0.19 94 1013.5
20260508111129 59 99 0.0 0.0 0.12 0.00 0.19 94 1013.7
20260508110622 58 111 1.0 2.0 0.07 0.00 0.17 94 1013.8
20260508110602 59 116 0.0 0.0 0.07 0.00 0.17 94 1014.0
20260508105610 60 116 1.0 1.0 0.24 0.00 0.16 94 1014.0
20260508105104 60 112 1.0 1.0 0.28 0.00 0.16 94 1014.3
20260508105045 60 98 1.0 1.0 0.26 0.00 0.13 93 1014.1
20260508104049 60 100 0.0 0.0 0.26 0.00 0.11 92 1014.7
20260508103801 60 100 0.0 1.0 0.28 0.00 0.09 91 1014.1
20260508103254 61 122 2.0 2.0 0.40 0.00 0.07 89 1014.1
20260508102746 62 102 1.0 1.0 0.24 0.00 0.04 85 1013.7
20260508102016 62 87 0.0 1.0 0.00 0.00 0.00 82 1014.7
20260508101728 62 119 0.0 1.0 0.00 0.00 0.00 82 1014.0
20260508101225 62 102 0.0 0.0 0.00 0.00 0.00 81 1013.1
20260508100458 62 127 2.0 3.0 0.00 0.00 0.00 82 1013.0
20260508095951 62 117 1.0 1.0 0.00 0.00 0.00 83 1013.0
20260508095445 62 98 0.0 0.0 0.00 0.00 0.00 83 1013.0
20260508094940 62 100 0.0 0.0 0.00 0.00 0.00 84 1013.0
20260508094432 62 107 0.0 0.0 0.00 0.00 0.00 84 1013.1
20260508093924 61 176 2.0 2.0 0.00 0.00 0.00 84 1013.0
20260508093416 61 101 1.0 1.0 0.00 0.00 0.00 84 1013.1
20260508092906 61 121 0.0 1.0 0.00 0.00 0.00 85 1013.0
20260508092358 61 155 1.0 1.0 0.00 0.00 0.00 84 1013.2
20260508091851 61 114 1.0 1.0 0.00 0.00 0.00 83 1013.1
20260508091345 61 129 0.0 0.0 0.00 0.00 0.00 83 1013.3
20260508091059 61 96 0.0 0.0 0.00 0.00 0.00 83 1013.2
20260508090333 61 106 0.0 0.0 0.00 0.00 0.00 83 1013.3
20260508085826 61 95 2.0 3.0 0.00 0.00 0.00 83 1013.4
20260508085541 62 102 0.0 0.0 0.00 0.00 0.00 83 1013.9
20260508084815 62 100 0.0 0.0 0.00 0.00 0.00 82 1013.8
20260508084527 62 99 0.0 0.0 0.00 0.00 0.00 81 1014.0
20260508083759 62 97 0.0 0.0 0.00 0.00 0.00 81 1014.1
20260508083249 62 129 0.0 0.0 0.00 0.00 0.00 81 1013.9
20260508082741 62 94 1.0 1.0 0.00 0.00 0.00 80 1013.3
20260508082233 62 97 0.0 0.0 0.00 0.00 0.00 79 1013.7
20260508081725 63 101 0.0 0.0 0.00 0.00 0.00 79 1013.8
20260508081435 63 89 1.0 1.0 0.00 0.00 0.00 78 1013.7
20260508080928 63 110 2.0 2.0 0.00 0.00 0.00 77 1013.9
20260508080159 63 96 1.0 1.0 0.00 0.00 0.00 77 1014.3
20260508075649 62 92 0.0 0.0 0.00 0.00 0.00 78 1014.8
20260508075138 62 98 0.0 0.0 0.00 0.00 0.00 78 1015.0
20260508074855 62 100 0.0 0.0 0.00 0.00 0.00 78 1015.1
20260508074344 62 101 0.0 0.0 0.00 0.00 0.00 79 1014.8
20260508073615 62 103 0.0 0.0 0.00 0.00 0.00 79 1014.8
20260508073107 62 101 0.0 0.0 0.00 0.00 0.00 79 1014.7
20260508072559 61 102 0.0 0.0 0.00 0.00 0.00 79 1014.4
20260508072311 61 102 0.0 0.0 0.00 0.00 0.00 79 1014.3
20260508071542 61 99 0.0 0.0 0.00 0.00 0.00 80 1014.2
20260508071035 61 102 0.0 0.0 0.00 0.00 0.00 80 1014.2
20260508070530 61 99 0.0 0.0 0.00 0.00 0.00 81 1014.6
20260508065012 60 99 0.0 0.0 0.00 0.00 0.00 82 1014.8
20260508064506 60 99 0.0 0.0 0.00 0.00 0.00 82 1014.9
20260508064217 60 100 0.0 0.0 0.00 0.00 0.00 82 1015.3
20260508063450 60 100 0.0 0.0 0.00 0.00 0.00 82 1015.3
20260508062942 60 100 0.0 0.0 0.00 0.00 0.00 83 1015.5
20260508062432 60 100 0.0 0.0 0.00 0.00 0.00 83 1015.3
20260508061926 60 100 0.0 0.0 0.00 0.00 0.00 82 1015.2
20260508061420 60 100 0.0 0.0 0.00 0.00 0.00 83 1015.1
20260508061134 60 100 0.0 0.0 0.00 0.00 0.00 83 1015.0
20260508060404 60 100 0.0 0.0 0.00 0.00 0.00 82 1015.0
20260508055858 60 101 0.0 0.0 0.00 0.00 0.00 82 1015.0
20260508055350 61 100 0.0 0.0 0.00 0.00 0.00 81 1014.9
20260508054839 61 100 0.0 0.0 0.00 0.00 0.00 81 1014.9
20260508053824 61 100 0.0 0.0 0.00 0.00 0.00 79 1015.0
20260508053316 61 100 0.0 0.0 0.00 0.00 0.00 78 1015.0
20260508052806 62 100 0.0 0.0 0.00 0.00 0.00 78 1015.1
20260508052742 62 100 0.0 0.0 0.00 0.00 0.00 78 1015.1
20260508051750 62 99 0.0 0.0 0.00 0.00 0.00 77 1015.3
20260508051242 62 99 0.0 0.0 0.00 0.00 0.00 77 1015.5
20260508050731 62 100 0.0 0.0 0.00 0.00 0.00 76 1015.3
20260508050224 62 98 0.0 0.0 0.00 0.00 0.00 75 1015.3
20260508045716 63 98 0.0 0.0 0.00 0.00 0.00 75 1015.2
20260508045203 62 98 0.0 0.0 0.00 0.00 0.00 75 1015.1
20260508044914 62 98 0.0 0.0 0.00 0.00 0.00 75 1015.1
20260508044150 62 100 0.0 0.0 0.00 0.00 0.00 76 1015.1
20260508043642 62 100 0.0 0.0 0.00 0.00 0.00 76 1015.2